EDW45M BKPR-LSZH

Flight info

Callsign EDW45M
Flight time 1h 47m
Altitude 38000
Route KUKAD1D KUKAD DCT RETRA DCT GACMO DCT SABAD DCT TIBRO DCT EKPEB DCT SOTOV P66 KPT L856 NEGRA
Aircraft A320/M-SDE3FGHIRWY/LB1

Departure

Time 2026-05-04 16:56
Airport Priština Adem Jashari International Airport (BKPR)

Arrival

Time 2026-05-04 18:44
Airport Zürich Airport (LSZH)
Time Latitude Longitude Altitude Speed Heading
2026-05-04 16:39 42.57472 21.03147 1786 ft 0 kts 265°
2026-05-04 16:49 42.57474 21.03173 1787 ft 4 kts 256°
2026-05-04 16:50 42.57502 21.03222 1787 ft 2 kts 176°
2026-05-04 16:50 42.57504 21.03222 1787 ft 0 kts 175°
2026-05-04 16:52 42.57458 21.03228 1786 ft 10 kts 175°
2026-05-04 16:52 42.57366 21.03237 1787 ft 13 kts 175°
2026-05-04 16:53 42.57245 21.03347 1787 ft 15 kts 175°
2026-05-04 16:53 42.56729 21.03401 1781 ft 28 kts 175°
2026-05-04 16:54 42.56534 21.03420 1783 ft 29 kts 176°
2026-05-04 16:55 42.55819 21.03507 1798 ft 14 kts 145°
2026-05-04 16:55 42.55823 21.03736 1798 ft 6 kts 21°
2026-05-04 16:56 42.55903 21.03730 1797 ft 34 kts 355°
2026-05-04 16:56 42.58563 21.03455 2424 ft 170 kts 356°
2026-05-04 16:57 42.59743 21.03335 3215 ft 173 kts 359°
2026-05-04 16:57 42.62437 21.03066 3976 ft 218 kts 357°
2026-05-04 16:58 42.66264 20.99059 6242 ft 255 kts 303°
2026-05-04 16:58 42.67191 20.96987 7143 ft 259 kts 302°
2026-05-04 16:59 42.68851 20.92587 8922 ft 270 kts 279°
2026-05-04 17:00 42.64278 20.84307 11624 ft 311 kts 216°
2026-05-04 17:00 42.58925 20.78925 13977 ft 327 kts 217°
2026-05-04 17:01 42.55229 20.75187 15357 ft 336 kts 218°
2026-05-04 17:01 42.51437 20.71305 16689 ft 346 kts 223°
2026-05-04 17:02 42.48465 20.66134 17706 ft 361 kts 248°
2026-05-04 17:02 42.46630 20.59467 18244 ft 391 kts 254°
2026-05-04 17:03 42.45689 20.55981 18757 ft 397 kts 253°
2026-05-04 17:03 42.44724 20.52463 19364 ft 400 kts 253°
2026-05-04 17:03 42.42758 20.45363 20597 ft 405 kts 253°
2026-05-04 17:04 42.40789 20.38233 21876 ft 409 kts 253°
2026-05-04 17:04 42.38783 20.30972 23117 ft 414 kts 253°
2026-05-04 17:05 42.36750 20.23639 24209 ft 419 kts 254°
2026-05-04 17:05 42.34929 20.16148 25107 ft 418 kts 263°
2026-05-04 17:06 42.33831 20.08419 26055 ft 419 kts 264°
2026-05-04 17:06 42.33275 20.04536 26512 ft 421 kts 264°
2026-05-04 17:07 42.32156 19.96756 27343 ft 424 kts 264°
2026-05-04 17:07 42.31782 19.94160 27573 ft 424 kts 263°
2026-05-04 17:07 42.31025 19.88908 27853 ft 428 kts 264°
2026-05-04 17:07 42.30454 19.84956 28275 ft 430 kts 264°
2026-05-04 17:08 42.29877 19.80988 28696 ft 431 kts 264°
2026-05-04 17:08 42.28709 19.73003 29376 ft 436 kts 264°
2026-05-04 17:08 42.28115 19.68977 29759 ft 438 kts 264°
2026-05-04 17:09 42.27516 19.64925 30112 ft 440 kts 264°
2026-05-04 17:09 42.26916 19.60862 30402 ft 442 kts 264°
2026-05-04 17:09 42.26315 19.56786 30665 ft 444 kts 264°
2026-05-04 17:10 42.25095 19.48590 31196 ft 447 kts 264°
2026-05-04 17:10 42.25320 19.36387 32110 ft 429 kts 294°
2026-05-04 17:11 42.26584 19.32785 32470 ft 422 kts 305°
2026-05-04 17:11 42.28354 19.29648 32821 ft 417 kts 316°
2026-05-04 17:11 42.32965 19.25027 33510 ft 413 kts 329°
2026-05-04 17:12 42.35410 19.22991 33865 ft 412 kts 329°
2026-05-04 17:12 42.40252 19.18935 34484 ft 412 kts 329°
2026-05-04 17:13 42.47583 19.12748 35207 ft 415 kts 328°
2026-05-04 17:14 42.54897 19.06567 36043 ft 412 kts 328°
2026-05-04 17:14 42.57329 19.04515 36305 ft 411 kts 328°
2026-05-04 17:14 42.62188 19.00405 36772 ft 411 kts 328°
2026-05-04 17:15 42.64617 18.98342 36982 ft 412 kts 328°
2026-05-04 17:15 42.69480 18.94208 37424 ft 413 kts 328°
2026-05-04 17:16 42.74358 18.90064 37848 ft 413 kts 328°
2026-05-04 17:16 42.81672 18.83849 38117 ft 413 kts 328°
2026-05-04 17:17 42.84107 18.81772 38116 ft 412 kts 328°
2026-05-04 17:18 42.93819 18.73443 38109 ft 411 kts 327°
2026-05-04 17:19 43.03504 18.65113 38120 ft 411 kts 327°
2026-05-04 17:20 43.13183 18.56712 38122 ft 412 kts 323°
2026-05-04 17:20 43.19248 18.48381 38111 ft 413 kts 313°
2026-05-04 17:21 43.27026 18.36773 38115 ft 413 kts 313°
2026-05-04 17:22 43.30906 18.30942 38116 ft 414 kts 313°
2026-05-04 17:23 43.38657 18.19247 38117 ft 413 kts 313°
2026-05-04 17:24 43.44465 18.10482 38115 ft 413 kts 313°
2026-05-04 17:25 43.52199 17.98756 38115 ft 414 kts 313°
2026-05-04 17:26 43.59275 17.87983 38113 ft 414 kts 313°
2026-05-04 17:27 43.68926 17.73229 38091 ft 414 kts 312°
2026-05-04 17:28 43.76626 17.61372 38104 ft 415 kts 312°
2026-05-04 17:29 43.88183 17.43530 38104 ft 415 kts 312°
2026-05-04 17:31 43.97816 17.28565 38113 ft 416 kts 312°
2026-05-04 17:32 44.07422 17.13550 38117 ft 416 kts 311°
2026-05-04 17:33 44.15108 17.01514 38099 ft 416 kts 311°
2026-05-04 17:34 44.22773 16.89420 38100 ft 416 kts 311°
2026-05-04 17:35 44.32350 16.74262 38101 ft 416 kts 311°
2026-05-04 17:36 44.36173 16.68189 38110 ft 417 kts 311°
2026-05-04 17:36 44.39997 16.62096 38098 ft 416 kts 310°
2026-05-04 17:37 44.43816 16.55997 38103 ft 417 kts 310°
2026-05-04 17:37 44.47632 16.49883 38103 ft 417 kts 310°
2026-05-04 17:38 44.51450 16.43758 38097 ft 417 kts 310°
2026-05-04 17:38 44.55260 16.37629 38097 ft 417 kts 310°
2026-05-04 17:39 44.60974 16.28427 38098 ft 417 kts 310°
2026-05-04 17:39 44.64776 16.22279 38093 ft 417 kts 310°
2026-05-04 17:40 44.68580 16.16124 38095 ft 417 kts 310°
2026-05-04 17:40 44.72387 16.09956 38081 ft 417 kts 310°
2026-05-04 17:41 44.76189 16.03786 38088 ft 417 kts 310°
2026-05-04 17:41 44.79979 15.97605 38091 ft 417 kts 310°
2026-05-04 17:42 44.83770 15.91404 38080 ft 417 kts 310°
2026-05-04 17:42 44.87529 15.85246 38092 ft 417 kts 310°
2026-05-04 17:43 44.91313 15.79037 38076 ft 417 kts 309°
2026-05-04 17:43 44.95097 15.72819 38076 ft 417 kts 309°
2026-05-04 17:44 44.98881 15.66587 38075 ft 418 kts 309°
2026-05-04 17:44 45.02655 15.60346 38066 ft 418 kts 309°
2026-05-04 17:45 45.06429 15.54107 38069 ft 418 kts 309°
2026-05-04 17:45 45.10205 15.47858 38071 ft 417 kts 309°
2026-05-04 17:46 45.13967 15.41590 38075 ft 418 kts 309°
2026-05-04 17:46 45.17732 15.35304 38070 ft 418 kts 309°
2026-05-04 17:47 45.21486 15.29040 38062 ft 418 kts 309°
2026-05-04 17:47 45.25249 15.22755 38062 ft 418 kts 309°
2026-05-04 17:48 45.29006 15.16443 38063 ft 418 kts 309°
2026-05-04 17:48 45.32768 15.10116 38068 ft 418 kts 309°
2026-05-04 17:49 45.36500 15.03834 38072 ft 419 kts 309°
2026-05-04 17:49 45.40253 14.97493 38089 ft 419 kts 309°
2026-05-04 17:50 45.44001 14.91139 38075 ft 419 kts 309°
2026-05-04 17:50 45.47744 14.84756 38088 ft 419 kts 308°
2026-05-04 17:51 45.51367 14.78244 38099 ft 419 kts 307°
2026-05-04 17:51 45.54925 14.71677 38092 ft 419 kts 307°
2026-05-04 17:52 45.58496 14.65122 38097 ft 419 kts 307°
2026-05-04 17:52 45.62086 14.58577 38099 ft 419 kts 307°
2026-05-04 17:53 45.65683 14.52024 38104 ft 419 kts 307°
2026-05-04 17:53 45.69276 14.45443 38099 ft 419 kts 307°
2026-05-04 17:54 45.72864 14.38846 38100 ft 420 kts 307°
2026-05-04 17:54 45.76447 14.32248 38095 ft 420 kts 306°
2026-05-04 17:55 45.80025 14.25633 38101 ft 420 kts 306°
2026-05-04 17:55 45.83603 14.19009 38100 ft 420 kts 306°
2026-05-04 17:56 45.87165 14.12418 38096 ft 420 kts 306°
2026-05-04 17:56 45.90736 14.05781 38095 ft 420 kts 306°
2026-05-04 17:57 45.94315 13.99112 38094 ft 421 kts 306°
2026-05-04 17:57 45.97886 13.92439 38098 ft 421 kts 306°
2026-05-04 17:58 46.01446 13.85768 38098 ft 421 kts 306°
2026-05-04 17:58 46.05013 13.79079 38091 ft 421 kts 306°
2026-05-04 17:59 46.08579 13.72387 38091 ft 421 kts 306°
2026-05-04 18:00 46.13922 13.62304 38090 ft 421 kts 305°
2026-05-04 18:00 46.17468 13.55575 38093 ft 421 kts 305°
2026-05-04 18:01 46.20968 13.48787 38086 ft 421 kts 300°
2026-05-04 18:01 46.23342 13.41136 38080 ft 418 kts 288°
2026-05-04 18:02 46.26263 13.29241 38076 ft 419 kts 288°
2026-05-04 18:02 46.28198 13.21365 38095 ft 419 kts 288°
2026-05-04 18:03 46.30134 13.13425 38087 ft 419 kts 288°
2026-05-04 18:03 46.32061 13.05462 38088 ft 419 kts 288°
2026-05-04 18:04 46.33978 12.97509 38089 ft 419 kts 288°
2026-05-04 18:05 46.36859 12.85557 38092 ft 419 kts 288°
2026-05-04 18:05 46.38767 12.77590 38089 ft 419 kts 288°
2026-05-04 18:06 46.41631 12.65615 38092 ft 419 kts 288°
2026-05-04 18:06 46.43206 12.58983 38083 ft 419 kts 288°
2026-05-04 18:07 46.45088 12.50989 38098 ft 419 kts 287°
2026-05-04 18:07 46.46970 12.43001 38092 ft 418 kts 287°
2026-05-04 18:08 46.48848 12.35015 38101 ft 418 kts 287°
2026-05-04 18:08 46.50723 12.27012 38103 ft 418 kts 287°
2026-05-04 18:09 46.54444 12.11022 38078 ft 419 kts 287°
2026-05-04 18:10 46.56304 12.02995 38063 ft 418 kts 287°
2026-05-04 18:10 46.58156 11.94968 38067 ft 420 kts 287°
2026-05-04 18:11 46.60240 11.87054 38055 ft 421 kts 300°
2026-05-04 18:11 46.63775 11.80217 38067 ft 424 kts 305°
2026-05-04 18:12 46.67398 11.73427 38059 ft 425 kts 305°
2026-05-04 18:12 46.71020 11.66620 38052 ft 425 kts 305°
2026-05-04 18:13 46.74628 11.59797 38049 ft 425 kts 305°
2026-05-04 18:14 46.80019 11.49539 38053 ft 425 kts 305°
2026-05-04 18:14 46.83626 11.42669 38070 ft 426 kts 304°
2026-05-04 18:15 46.90844 11.28872 37582 ft 429 kts 304°
2026-05-04 18:15 46.92659 11.25398 37156 ft 429 kts 304°
2026-05-04 18:16 46.94468 11.21924 36762 ft 430 kts 304°
2026-05-04 18:16 46.96286 11.18433 36384 ft 431 kts 304°
2026-05-04 18:16 46.98083 11.14975 35992 ft 432 kts 304°
2026-05-04 18:17 47.01729 11.07951 35227 ft 434 kts 304°
2026-05-04 18:17 47.03556 11.04417 34852 ft 436 kts 303°
2026-05-04 18:17 47.07228 10.97304 34131 ft 439 kts 304°
2026-05-04 18:18 47.09068 10.93734 33741 ft 438 kts 304°
2026-05-04 18:18 47.10903 10.90175 33320 ft 437 kts 304°
2026-05-04 18:18 47.12734 10.86619 32900 ft 434 kts 304°
2026-05-04 18:18 47.14548 10.83092 32503 ft 432 kts 304°
2026-05-04 18:19 47.18140 10.76093 31744 ft 426 kts 304°
2026-05-04 18:19 47.19941 10.72575 31364 ft 424 kts 304°
2026-05-04 18:19 47.21687 10.69155 30992 ft 421 kts 304°
2026-05-04 18:20 47.23441 10.65713 30604 ft 419 kts 304°
2026-05-04 18:20 47.25184 10.62289 30246 ft 417 kts 304°
2026-05-04 18:20 47.26918 10.58880 29850 ft 415 kts 304°
2026-05-04 18:20 47.28646 10.55485 29424 ft 413 kts 304°
2026-05-04 18:21 47.30366 10.52107 29005 ft 410 kts 304°
2026-05-04 18:21 47.32067 10.48758 28607 ft 407 kts 304°
2026-05-04 18:21 47.33755 10.45425 28174 ft 404 kts 304°
2026-05-04 18:21 47.35433 10.42106 27799 ft 402 kts 303°
2026-05-04 18:22 47.37098 10.38808 27408 ft 399 kts 303°
2026-05-04 18:22 47.38749 10.35533 27021 ft 397 kts 303°
2026-05-04 18:22 47.40391 10.32271 26635 ft 394 kts 303°
2026-05-04 18:22 47.42021 10.29035 26257 ft 392 kts 303°
2026-05-04 18:23 47.43644 10.25814 25873 ft 390 kts 303°
2026-05-04 18:23 47.45254 10.22616 25507 ft 387 kts 303°
2026-05-04 18:23 47.46855 10.19424 25142 ft 386 kts 303°
2026-05-04 18:23 47.48452 10.16236 24793 ft 384 kts 303°
2026-05-04 18:24 47.50032 10.13077 24428 ft 381 kts 303°
2026-05-04 18:24 47.51603 10.09936 24077 ft 380 kts 303°
2026-05-04 18:24 47.53171 10.06803 23730 ft 378 kts 303°
2026-05-04 18:24 47.54728 10.03686 23344 ft 375 kts 303°
2026-05-04 18:25 47.56275 10.00584 23014 ft 372 kts 303°
2026-05-04 18:25 47.57812 9.97496 22985 ft 372 kts 303°
2026-05-04 18:25 47.59345 9.94408 22990 ft 373 kts 303°
2026-05-04 18:25 47.60882 9.91313 22986 ft 373 kts 302°
2026-05-04 18:26 47.62419 9.88210 22984 ft 373 kts 302°
2026-05-04 18:26 47.63955 9.85100 22982 ft 373 kts 302°
2026-05-04 18:26 47.65483 9.82010 22874 ft 371 kts 302°
2026-05-04 18:26 47.67002 9.78938 22313 ft 369 kts 302°
2026-05-04 18:27 47.68516 9.75874 21764 ft 368 kts 302°
2026-05-04 18:27 47.70019 9.72816 21264 ft 365 kts 301°
2026-05-04 18:27 47.71272 9.69585 20661 ft 361 kts 291°
2026-05-04 18:27 47.72141 9.66077 19969 ft 362 kts 282°
2026-05-04 18:28 47.72604 9.62423 19430 ft 358 kts 273°
2026-05-04 18:28 47.72676 9.58754 18946 ft 354 kts 265°
2026-05-04 18:28 47.72564 9.55133 18485 ft 351 kts 265°
2026-05-04 18:28 47.72450 9.51523 17971 ft 348 kts 265°
2026-05-04 18:29 47.72338 9.47937 17458 ft 346 kts 265°
2026-05-04 18:29 47.72227 9.44379 16950 ft 344 kts 265°
2026-05-04 18:29 47.72120 9.40845 16452 ft 342 kts 265°
2026-05-04 18:29 47.72018 9.37327 15990 ft 340 kts 265°
2026-05-04 18:30 47.71820 9.30362 15048 ft 336 kts 265°
2026-05-04 18:30 47.71723 9.26888 14372 ft 341 kts 265°
2026-05-04 18:30 47.71620 9.23291 13457 ft 352 kts 265°
2026-05-04 18:31 47.71516 9.19651 12765 ft 353 kts 265°
2026-05-04 18:31 47.71408 9.16022 12163 ft 351 kts 265°
2026-05-04 18:31 47.71298 9.12416 11576 ft 349 kts 264°
2026-05-04 18:31 47.71186 9.08834 11023 ft 346 kts 264°
2026-05-04 18:32 47.71078 9.05335 10880 ft 331 kts 264°
2026-05-04 18:32 47.70977 9.02004 10754 ft 316 kts 264°
2026-05-04 18:32 47.70876 8.98814 10633 ft 303 kts 264°
2026-05-04 18:32 47.70776 8.95744 10508 ft 291 kts 264°
2026-05-04 18:33 47.70678 8.92796 10388 ft 279 kts 263°
2026-05-04 18:33 47.70585 8.89975 10266 ft 269 kts 263°
2026-05-04 18:33 47.70498 8.87266 10151 ft 258 kts 263°
2026-05-04 18:33 47.70411 8.84646 9950 ft 252 kts 263°
2026-05-04 18:34 47.70321 8.82047 9631 ft 251 kts 263°
2026-05-04 18:34 47.70233 8.79478 9306 ft 249 kts 263°
2026-05-04 18:34 47.70143 8.76904 8997 ft 249 kts 263°
2026-05-04 18:34 47.70053 8.74345 8686 ft 248 kts 264°
2026-05-04 18:35 47.69965 8.71788 8377 ft 247 kts 264°
2026-05-04 18:35 47.69878 8.69249 8066 ft 247 kts 264°
2026-05-04 18:35 47.69789 8.66711 7771 ft 245 kts 264°
2026-05-04 18:35 47.69699 8.64210 7479 ft 245 kts 264°
2026-05-04 18:36 47.69607 8.61687 7180 ft 244 kts 264°
2026-05-04 18:36 47.69517 8.59179 6898 ft 243 kts 264°
2026-05-04 18:36 47.69426 8.56683 6655 ft 242 kts 264°
2026-05-04 18:36 47.69333 8.54185 6407 ft 242 kts 265°
2026-05-04 18:37 47.69239 8.51697 6153 ft 241 kts 264°
2026-05-04 18:37 47.69145 8.49220 5899 ft 240 kts 264°
2026-05-04 18:37 47.69050 8.46768 5720 ft 238 kts 263°
2026-05-04 18:37 47.68696 8.44373 5600 ft 236 kts 248°
2026-05-04 18:38 47.67971 8.42217 5451 ft 230 kts 234°
2026-05-04 18:38 47.66984 8.40428 5351 ft 219 kts 228°
2026-05-04 18:38 47.65986 8.38781 5221 ft 209 kts 229°
2026-05-04 18:38 47.64987 8.37309 5140 ft 195 kts 217°
2026-05-04 18:39 47.63818 8.36411 5056 ft 189 kts 199°
2026-05-04 18:39 47.62515 8.36108 4946 ft 190 kts 181°
2026-05-04 18:39 47.61210 8.36432 4796 ft 194 kts 163°
2026-05-04 18:39 47.60030 8.37410 4578 ft 197 kts 142°
2026-05-04 18:40 47.59020 8.38783 4322 ft 197 kts 139°
2026-05-04 18:40 47.58014 8.40168 4062 ft 198 kts 138°
2026-05-04 18:40 47.57005 8.41554 3813 ft 195 kts 138°
2026-05-04 18:40 47.56022 8.42905 3552 ft 190 kts 138°
2026-05-04 18:41 47.55066 8.44217 3287 ft 185 kts 139°
2026-05-04 18:41 47.54135 8.45492 3042 ft 178 kts 139°
2026-05-04 18:41 47.53263 8.46688 2813 ft 162 kts 139°
2026-05-04 18:41 47.52467 8.47780 2616 ft 151 kts 140°
2026-05-04 18:42 47.51712 8.48814 2411 ft 146 kts 139°
2026-05-04 18:42 47.50963 8.49838 2199 ft 146 kts 139°
2026-05-04 18:42 47.50220 8.50846 2012 ft 144 kts 139°
2026-05-04 18:42 47.49489 8.51848 1819 ft 142 kts 138°
2026-05-04 18:43 47.48775 8.52848 1617 ft 141 kts 140°
2026-05-04 18:43 47.48058 8.53820 1434 ft 139 kts 140°
2026-05-04 18:43 47.47408 8.54697 1396 ft 113 kts 137°
2026-05-04 18:43 47.46951 8.55323 1389 ft 65 kts 137°
2026-05-04 18:44 47.46677 8.55696 1394 ft 49 kts 137°
2026-05-04 18:44 47.46604 8.55795 1396 ft 35 kts 139°
2026-05-04 18:44 47.46342 8.55969 1407 ft 16 kts 166°
2026-05-04 18:44 47.46232 8.56000 1407 ft 16 kts 172°
2026-05-04 18:45 47.46124 8.55993 1407 ft 15 kts 184°
2026-05-04 18:45 47.46011 8.55977 1406 ft 18 kts 186°
2026-05-04 18:45 47.45895 8.55927 1414 ft 17 kts 198°
2026-05-04 18:45 47.45781 8.55878 1410 ft 18 kts 189°
2026-05-04 18:46 47.45688 8.55864 1411 ft 4 kts 186°
2026-05-04 18:46 47.45666 8.55857 1408 ft 6 kts 196°
2026-05-04 18:46 47.45644 8.55793 1413 ft 10 kts 271°
2026-05-04 18:46 47.45653 8.55662 1405 ft 16 kts 276°
2026-05-04 18:47 47.45666 8.55475 1402 ft 20 kts 276°
2026-05-04 18:47 47.45636 8.55345 1401 ft 15 kts 188°
2026-05-04 18:47 47.45533 8.55400 1404 ft 17 kts 155°
2026-05-04 18:47 47.45427 8.55475 1406 ft 16 kts 157°
2026-05-04 18:48 47.45371 8.55511 1412 ft 8 kts 155°
2026-05-04 18:48 47.45319 8.55548 1406 ft 9 kts 154°
2026-05-04 18:48 47.45275 8.55613 1407 ft 10 kts 96°
2026-05-04 18:48 47.45309 8.55642 1410 ft 5 kts
2026-05-04 18:49 47.45341 8.55646 1409 ft 2 kts
2026-05-04 18:49 47.45353 8.55647 1410 ft 0 kts